Pagrindinis puslapis
METAR-TAF:

METAR-TAF

Oro uostai :

Coleman, Teksasas, Jungtinės Amerikos Valstijos

platuma: 31-50-28N, ilguma: 099-24-12W, Aukštis: 517 m

Dabartinis oras

Ataskaita buvo paskelbta 25 minutes, ne 03:35 UTC
Vėjas 9 kt iš Pietų/Pietryčių su gūsio iki 14 kt
Temperatūra 23°C
Drėgmė 73%
Slėgis 1012 hPa
Matomumas: 16.1 km
Giedras dangus

METAR: KCOM 170335Z AUTO 15009G14KT 10SM CLR 23/18 A2988 RMK AO2 T02300181

Laikas: 22:00 (04:00 UTC)


TAF: trūkstamas

Orai ataskaitas ir orų prognozės (METAR, TAF).

turimą stotys yra geltonos ir raudonos taškus žemėlapyje.

Perkelti pele per norėdami pamatyti stoties vardą.

Tada spustelėkite, norėdami matyti oro stebėjimo ir prognozės.

Norėdami pakeisti žemėlapį: spustelėkite ant žalios mygtukų su juodo kryžiaus žemyn,; žalią mygtuką su brūkšneliu, jei norite nutolinti; arba žalių rodyklių gretimoms žemėlapius.


METAR-TAF: